Skip Page Navigation
NASA JPL Caltech
NASA Logo - Jet Propulsion Laboratory + View the NASA Portal
+ Center for Near-Earth Object Studies
JPL Home Earth Solar System Stars & Galaxies Technology
JPL Solar System Dynamics
BODIES ORBITS EPHEMERIDES TOOLS PHYSICAL DATA DISCOVERY FAQ SITE MAP
IMPORTANT: The SSD Announcement email list is now available. Major changes are coming in the near future, including possible hostname and/or URL changes. To be notified of such changes, subscribe to this email list.

Please visit this page for more details.


JPL Small-Body Database Browser
Search: [ help ]  
344329 (2001 VZ41)
Classification: Main-belt Asteroid          SPK-ID: 2344329
Ephemeris | Orbit Diagram | Orbital Elements | Mission Design | Physical Parameters | Discovery Circumstances | Close-Approach Data ]

[ show orbit diagram ]
Orbital Elements at Epoch 2458600.5 (2019-Apr-27.0) TDB
Reference: JPL 7 (heliocentric ecliptic J2000)
 Element Value Uncertainty (1-sigma)   Units 
e .1682468981173869 1.1743e-07  
a 3.154668050528684 4.6626e-08 au
q 2.623904936437209 3.6379e-07 au
i 22.70563810793843 1.3273e-05 deg
node 245.1912023097065 1.9605e-05 deg
peri 172.159438175961 3.1208e-05 deg
M 47.45339079419982 2.3712e-05 deg
tp 2458330.729983986432
(2018-Jul-31.22998399)
0.00013197 TDB
period 2046.580953215149
5.60
4.5373e-05
1.242e-07
d
yr
n .1759031322139714 3.8998e-09 deg/d
Q 3.685431164620159 5.4471e-08 au
  Orbit Determination Parameters
   # obs. used (total)      146  
   data-arc span      6284 days (17.20 yr)  
   first obs. used      2001-10-21  
   last obs. used      2019-01-04  
   planetary ephem.      DE431  
   SB-pert. ephem.      SB431-N16  
   condition code      0  
   norm. resid. RMS      .52227  
   source      ORB  
   producer      Otto Matic  
   solution date      2019-Jul-13 10:18:22  

Additional Information
 Earth MOID = 1.63778 au 
 Jupiter MOID = 1.67052 au 
 T_jup = 3.066 
[ show covariance matrix ]

Ephemeris | Orbit Diagram | Orbital Elements | Mission Design | Physical Parameters | Discovery Circumstances | Close-Approach Data ]

Physical Parameter Table
Parameter Symbol Value Units Sigma Reference Notes
absolute magnitude H 15.3   n/a MPO427767  

344329 (2001 VZ41)          Discovered 2001-Nov-09 by LINEAR at Socorro
Reference: 20121128/Numbers.arcLast Updated: 2012-12-03

[ hide close-approach data ]
Close-Approach Data   ...sorted by Date/Time (TDB)
Date/Time (TDB) Time Uncertainty
(days_HH:MM)
Body Nominal Distance (au) Minimum Distance (au) Maximum Distance (au) V-relative (km/s) V-infinity (km/s) JD (TDB) Time Uncertainty (minutes) Semi-major axis (km) Semi-minor axis (km) range-LOV angle (deg) N-sigma BP Orbit Ref. Reference Modified
1948-Oct-30 02:50 00:05 Jupiter 1.94244909485243 1.94244446379221 1.94245372593395 5.59904201560732 5.52061168562325 2432854.617785583 4.73192318253684 446.310406922178 126.3442689746 -62.9276534346336 1869692.07802606 T 7 CATAB v2.0e-lin.ifort 2019-Jul-13 10:18:23 2019-Jul-13 10:18
1959-Sep-29 08:22 00:03 Jupiter 1.69974762294833 1.69974657480602 1.69974867109084 5.80497237097106 5.71848399414511 2436840.848607793 3.20909136784583 644.467167713029 51.2245727651547 -89.8829309698257 1733196.78633884 T 7 CATAB v2.0e-lin.ifort 2019-Jul-13 10:18:23 2019-Jul-13 10:18
1970-Sep-04 18:46 00:03 Jupiter 1.9990128084634 1.99901023151468 1.9990153854562 5.61653028560231 5.5405750279264 2440834.281968511 2.7167619997386 555.328117274693 61.6558271432266 78.0561067128698 1506152.6261898 T 7 CATAB v2.0e-lin.ifort 2019-Jul-13 10:18:23 2019-Jul-13 10:18
2066-Aug-14 05:23 00:03 Jupiter 1.7013690546623 1.70136800554983 1.70137010378812 5.79343536124817 5.7068553571171 2475876.724621056 2.94214778644007 617.000649337502 46.7164035151828 88.0949077932535 1621692.19847917 T 7 CATAB v2.0e-lin.ifort 2019-Jul-13 10:18:23 2019-Jul-13 10:18
2077-Jul-24 18:52 00:04 Jupiter 1.933679759848 1.93367555764189 1.93368396217667 5.69598116188183 5.61855214338275 2479874.285991968 4.04492871120309 828.374971085571 53.2343945993552 75.7741384613474 1518853.08914454 T 7 CATAB v2.0e-lin.ifort 2019-Jul-13 10:18:23 2019-Jul-13 10:18
2173-Jun-28 04:25 00:09 Jupiter 1.71463665903711 1.71463451082395 1.71463880767659 5.76816935203676 5.68188234636331 2514910.683872853 9.09569182981534 1599.80904693244 55.5802539263613 -86.6822453976741 1637109.49574295 T 7 CATAB v2.0e-lin.ifort 2019-Jul-13 10:18:23 2019-Jul-13 10:18
2184-Jun-09 11:46 00:10 Jupiter 1.87706618141129 1.87705715094272 1.87707521286841 5.74726885023251 5.66820986477071 2518909.990520038 10.3343990340878 2222.18938076827 46.93223737023 78.3376393659157 1577889.27338598 T 7 CATAB v2.0e-lin.ifort 2019-Jul-13 10:18:23 2019-Jul-13 10:18
Ephemeris | Orbit Diagram | Orbital Elements | Mission Design | Physical Parameters | Discovery Circumstances | Close-Approach Data ]
ABOUT SSD CREDITS/AWARDS PRIVACY/COPYRIGHT GLOSSARY LINKS
FirstGov 2020-Jan-28 05:56 UT
(server date/time)  
NASA Home Page
Site Manager:   Ryan S. Park
Webmaster  Alan B. Chamberlin